GPS BIIF-11

Last updated on Tue Sep 16 2025 00:02:34 GMT+0000 (Coordinated Universal Time)

1 41019U 15062A 25258.06355498 -.00000047 00000+0 00000+0 0 9991 2 41019 56.7701 41.4296 0106929 228.0337 131.0602 2.00566921 72318
UTC large
Height (km)
Speed (km/s)
/
Latitude / Longitude
Inclination (degrees)
Orbital Period (minutes)
Azimuth
Elevation
Range (km)
Doppler Factor

Next 0 passes for location: London (51.5072 / 0.1276)

Sorry there are no passes over London.